カタログに戻る

NOAA 16 DEB

運用中SSO
NORAD 41347·DEBRIS·🇺🇸 United States

打ち上げ Sep 21, 2000 から Vandenberg Space Force Base

Loading…

次のパス (今後24時間)

TLE

最新Source: Space-Track

元期: Sep 14, 2026, 11:52 UTC

1 41347U 00055HQ  26257.49482393  .00003512  00000-0  12221-2 0  9994
2 41347  98.6985 335.9445 0019742 100.3085 260.0327 14.35965935550043

AllMySatでNOAA 16 DEBをリアルタイム追跡

Download on the App Store